Location: Bretagne
(43.8474°N, 0.4650°W)
Time: 10:34:12
(UTC+00:00)

USA 267 - Pass Details

Date: 15 January 2026
Orbit: 1101 x 1107 km, 123.0° (Epoch: 10 January)

Event Time Altitude Azimuth Distance (km) Brightness Sun altitude
Exits shadow 18:20:25 23° 75° (ENE) 2,168 4.2 -16.0°
Maximum altitude 18:23:58 40° 22° (NNE) 1,574 3.8 -16.6°
Drops below altitude 10° 18:29:57 10° 316° (NW) 2,965 5.9 -17.6°
Sets 18:32:34 0° 309° (NW) 3,923 6.7 -18.1°
